GFSNGP_prec_radar_084.txt.gz
Reflectivity
1 23 30 28 3 13 8 11 14 -13 -8 20 28 14 8 -20 -20 -20 -18 -20 -7 -20 1 4 -20 -20 -20 -20 -20 -20 -20 -20 -20 -20 -20 -20 -20 -20 -20 -17 -20 -20 -20 -20
-1 -13 8 16 22 21 33 36 19 1 5 13 13 0 10 -20 -20 -20 -20 -20 -20 -5 -20 -20 -20 -20 -20 -20 -20 -20 -20 -20 -20 -20 -20 -20 -20 -20 -20 -20 -20 -20 -20 -20
-20 -6 -19 -8 2 -12 3 -17 -20 -17 -3 -5 -20 -20 -20 -20 -20 -20 -20 -20 -20 -20 -20 -20 -20 -20 -20 -20 -20 -20 -20 -20 -20 -20 -20 -20 -20 -20 -20 -15 -19 -20 -20 -20
-20 -20 -1 -6 3 2 -2 -15 -20 -4 10 29 -1 -12 -20 -20 -20 -20 -20 -20 -20 -20 -20 -20 -20 -20 -20 -20 -20 -20 -20 -20 -20 -20 -20 -20 -20 -20 -20 -20 -20 -20 -19 -20
-20 -20 -20 -20 12 5 -0 -20 -20 -13 -15 3 -8 -3 9 -20 -20 -20 -20 -14 -16 -20 -20 -20 -20 -20 -20 -20 -20 -20 -20 -20 -20 -20 -20 -20 -20 -20 -20 -20 -20 -20 21 5
8 -6 -20 -20 -20 -20 -20 -5 -6 -16 35 -2 -20 -20 -15 -20 -17 -2 -19 -16 -20 -20 -20 -20 -20 -20 -20 -20 -11 -4 -20 -17 -20 -20 -20 -20 -20 -20 -20 -20 -20 -20 -11 -20
-19 6 -10 -20 -19 -20 -9 0 -20 -20 -11 -20 -20 -20 -20 -20 -20 -20 -20 -20 -20 -20 -20 -20 -20 -20 -20 -20 -20 -20 -20 -10 -6 -20 -20 -20 -20 -13 -4 -11 -17 -6 -3 -4
0 14 12 -20 -20 -7 -7 -20 15 -14 -20 -20 -20 -20 -20 -20 -20 9 20 -20 -20 -20 -20 -20 -20 -20 -20 -20 -20 -12 -0 8 -2 6 6 -20 -20 -20 -20 -20 -20 -5 -19 -4
-20 -20 -20 -20 -19 -17 -20 -20 -20 -20 -20 -20 -20 -20 -20 -20 -20 -20 -20 -20 -20 -20 -20 -20 -20 -20 -20 -20 -20 -20 -19 -13 1 2 20 -20 27 21 -20 -20 -20 13 14 10
10 21 -4 41 10 -20 -20 -20 -20 -20 -20 -20 -20 -20 -20 -20 -20 -20 -20 -20 -20 -20 -20 -20 -20 -20 -4 -20 -20 -20 -19 23 0 12 24 21 21 17 22 -8 -5 5 32 33
22 21 27 34 34 36 5 -20 -20 -20 -20 -20 -20 -20 -20 -20 -20 -20 -20 -20 -20 -20 -20 -20 -20 -20 -20 0 -20 -20 -19 13 18 20 8 -0 14 23 25 33 28 18 17 29
19 15 38 29 14 10 -19 -20 -20 -20 -20 -20 -20 -20 -20 -20 -20 -20 -20 -20 -20 -20 -20 -20 -20 -20 -20 -20 -20 -20 -14 19 19 14 15 16 16 20 27 34 27 28 24 19
8 12 -19 -20 -20 -20 -20 -20 -20 -20 -20 -20 -20 -20 -20 -20 -20 -20 -20 -20 -20 -20 -20 -20 -20 -20 -20 -20 -20 2 -20 7 18 26 28 32 33 28 21 23 28 30 28 27
-20 -20 -20 -20 -11 -20 -20 -20 -20 -20 -20 -20 -20 -20 -20 -20 -18 -20 -20 -20 -20 -20 -20 -20 -20 -20 -20 -20 -20 -18 -5 15 17 26 29 28 21 18 24 27 27 37 39 24
2 -20 -20 -20 -20 -20 -20 -20 -20 -20 -20 -20 -20 -20 -20 -20 -20 -20 -20 -20 -19 -20 -20 -20 -19 -17 -19 -14 -10 -8 0 5 15 18 19 23 24 25 20 22 23 24 22 17
-18 -20 -20 -20 -20 -20 -20 -20 -20 -20 -20 -20 -20 -20 -20 -20 -20 -20 -20 -19 -18 -6 1 12 14 9 -6 -16 -19 -20 1 10 0 9 7 -0 12 15 21 23 21 19 17 18
-20 -20 -20 -20 -20 -12 -20 -20 -20 -20 -20 -20 -7 -20 -20 -20 -20 -20 -2 -4 -19 -3 11 15 16 8 -9 -18 -20 -14 -15 -1 9 12 8 10 11 17 17 16 14 6 12 12
-20 -20 -20 -20 -14 -5 -20 -20 -20 -15 -5 -2 -8 -11 -20 -18 -5 -3 -15 -10 -14 1 11 15 17 15 -2 -11 -9 -12 -19 -16 -16 -15 -12 -7 -0 2 6 7 6 5 6 5
-20 -18 -20 -7 -2 -20 -20 -20 -17 -0 -1 -6 -20 -20 -17 -16 -14 -13 -9 1 7 10 15 18 20 19 11 2 -9 -14 -14 -13 -12 -17 -20 -20 -19 -12 -10 -13 -16 -17 -15 -15
-20 -20 -20 -20 -20 -19 -3 -2 -18 -17 -1 -8 -19 -20 -19 -8 -4 -14 -16 -9 5 14 17 18 17 15 13 9 1 -16 -7 -5 -20 -20 -19 -17 -12 -6 -12 -18 -15 -11 -20 -19
-2 -2 -11 -10 -3 -2 -3 -3 -18 -18 -13 -20 -20 -20 -20 -19 -18 -11 -7 -20 -3 -6 -2 6 5 2 3 0 -9 -20 -20 -20 -20 -18 -19 -20 -20 -20 -20 -20 -20 -20 -20 -20
-1 -2 -1 -6 -8 -4 -4 -13 -20 -20 -20 -20 -20 -16 -7 0 -10 -10 -15 -9 -20 -20 -20 -20 -20 -20 -20 -20 -20 -20 -20 -20 -19 -20 -20 -20 -20 -20 -20 -20 -20 -20 -20 -20
1 -3 -5 -14 -20 -11 -20 -20 -16 -20 -17 -16 -16 -18 -20 -20 -20 -20 -20 -20 -20 -20 -20 -20 -20 -20 -20 -9 1 -4 -9 -20 -17 -3 -20 -20 -16 -16 -14 -17 -20 -20 -20 -10
4 0 2 1 0 -12 -20 -2 -7 -6 -10 -20 -20 -20 -20 -20 -20 -20 -20 -20 -20 -20 -20 -20 -20 -20 -19 -16 -20 -20 -19 0 -13 -19 -5 -19 -13 -11 -18 -20 -20 -20 -19 -20
5 5 -16 -15 -17 -7 -11 -15 -14 -18 -20 -20 -20 -20 -20 -20 -20 -20 -20 -20 -20 -19 -20 -20 -20 -19 -7 -20 -14 1 -18 -20 -20 -15 -7 -9 -5 -20 -11 -6 -20 -20 -19 -20
1 -3 -14 -20 0 3 3 -2 -20 -20 -20 -20 -20 -20 -11 -20 -20 -20 -20 -20 -20 -20 -12 -20 -20 -13 -9 -18 -12 -2 -20 -20 -11 -8 -7 -10 -5 -20 -20 -20 -14 -20 -20 -20
2 -15 -8 -19 -20 -20 -20 -20 -20 -14 -4 -13 -20 -16 -4 -9 -20 -16 -15 -1 -1 2 -0 -1 -20 -20 -20 -20 -4 -3 -1 -20 -20 -20 -2 -4 -8 -10 -20 -20 -20 -20 -20 -20

GFSNGP_prec_radar_087.txt.gz
Reflectivity
-20 -3 7 28 30 33 31 -0 26 9 26 10 25 31 28 22 5 5 -20 -20 1 -19 -20 -17 7 25 -14 -20 -20 -20 -20 -20 -20 -20 -20 -20 -20 -20 -20 -14 -20 -20 -20 -20
-20 -12 -2 22 12 28 16 34 20 23 23 29 19 26 32 32 -16 -20 -11 -5 -5 -12 -20 -20 -20 -20 27 -20 -20 -20 -20 -20 -20 -20 -20 -20 -20 -20 -20 -20 -20 -20 -20 -20
-20 -20 -20 -4 7 15 11 17 21 23 18 6 29 30 -4 -15 -10 8 11 -6 -20 -20 -20 -20 -20 -20 13 -11 15 -19 -20 -20 -20 -7 -20 -20 -20 -20 -20 -20 -20 -11 -20 -12
-20 -20 -20 -4 4 -4 2 -7 11 4 -20 2 20 4 -17 -20 -20 -19 -20 -20 -20 -20 -20 -20 -20 -20 -20 -20 -18 -20 14 10 -20 -20 27 26 -20 -20 -20 -20 -20 -20 -20 -20
-20 -20 -20 -20 -20 -20 10 4 -20 -20 -20 -9 5 18 6 12 -20 -20 -17 -20 -20 -20 -20 -20 -20 -20 -20 -20 -20 -20 -9 -2 29 -20 28 25 -3 -20 -20 -20 -20 -20 -20 -0
-16 11 -20 -20 14 3 -20 20 -20 -20 -20 6 4 -19 -20 -20 -14 -17 -19 -20 -20 -20 -20 -20 -20 -20 -20 -20 -20 -20 -20 -6 24 -6 24 -0 29 -9 -20 -20 -20 -20 -20 -19
-12 -6 -10 -17 -16 -20 -20 -20 -20 -20 -20 -8 -20 14 26 3 -18 -19 -20 -20 -20 -20 -20 -20 -18 -20 -20 -20 -20 -20 -20 -20 -20 -20 -2 23 9 -12 28 11 28 -18 -20 5
6 13 3 -20 -20 -9 -10 -20 -20 -20 -20 -20 -20 9 15 -20 -20 -20 -20 -20 -20 -20 -20 -20 -20 -20 -20 -20 -20 -20 -20 -20 -20 -20 -20 23 4 22 24 20 5 -19 -19 18
-20 -20 10 -15 -20 20 4 -20 -17 -20 -15 -20 -20 -20 -20 -20 -20 -20 -20 -20 -20 -20 -20 -20 -20 -20 -20 -20 -19 -20 -20 -20 -20 -20 -20 -19 22 19 21 25 25 11 25 19
19 -15 -18 11 8 16 16 27 -18 -20 -20 -20 -20 -20 -20 -20 -20 -20 -20 -20 -20 -20 -20 -20 -20 -20 -20 -8 6 -20 -20 -20 -20 -20 -20 -20 -19 16 19 19 22 22 22 18
17 12 15 23 40 35 2 -16 -20 -20 -20 -20 -20 -20 -20 -20 -20 -20 -20 -20 -20 -20 -20 -20 -20 -20 -20 -20 -20 -20 -20 -20 -20 -20 -20 -20 -17 -8 10 29 28 18 22 11
29 40 31 21 34 27 21 15 -9 -20 -20 -20 -20 -20 -20 -20 -20 -20 -20 -20 -20 -20 -20 -20 -20 -20 -20 -13 -20 -20 -20 -20 -20 -20 -20 -20 -11 12 23 31 21 24 26 22
32 30 13 20 17 12 -7 -20 -20 -20 -20 -20 -20 -20 -20 -20 -20 -20 -20 -20 -20 -20 -20 -20 -20 -20 -20 -20 -20 -20 -20 -20 -17 -19 -20 -20 2 16 20 26 16 22 26 26
0 8 -11 -20 -20 -12 -8 -15 -20 -20 -20 -20 -20 -20 -20 -20 -20 -20 -20 -20 -20 -20 -20 -20 -20 -20 -20 -18 -9 -3 -11 7 -4 -3 -2 -19 -19 -3 9 19 17 24 35 33
20 -20 -20 -20 -20 -20 -20 -20 -20 -20 -20 -20 -20 -20 -20 -20 -20 -12 -16 -15 -14 -18 -18 -18 -18 -13 -15 -17 -15 -4 0 3 -8 -1 4 -5 -12 -8 1 12 19 20 19 17
-19 -20 -20 -20 -20 -20 -20 -20 -20 -20 -20 -19 -20 -20 -20 -20 -19 -20 -10 -17 -19 -15 -14 -19 -20 -16 -18 -19 -16 -16 -4 -6 -15 -17 -16 -20 -16 -9 -16 -6 7 13 14 16
-20 -20 -20 -20 4 -18 -20 -20 -20 -20 -20 -20 -19 2 2 -20 -20 -20 -20 -20 -18 -13 -10 -19 -9 -19 -20 -19 -4 3 1 -2 -14 -18 -19 -19 -20 -20 -20 -20 -6 3 5 2
-20 -20 -20 -5 -13 -20 -20 -20 -20 -20 -20 -20 -20 -20 -20 -20 -20 -20 -20 -20 -20 -20 -19 -16 -16 -15 -11 -6 -1 6 7 7 5 3 -7 -19 -18 -19 -20 -20 -20 -20 -13 1
-20 -20 -20 -20 -11 -20 -8 -5 -10 -13 -13 -20 -20 -20 -20 -20 -20 -17 -17 -19 -20 -19 -19 -18 -17 -16 -11 4 8 11 10 10 5 -5 -17 -16 -20 -20 -20 -20 -20 -20 -20 -20
-20 -20 -20 -20 -20 -20 -20 -20 -20 -20 -20 -20 -20 -20 -20 -17 -17 -18 -18 -18 -18 -10 -18 -17 -9 -9 -4 5 11 14 13 11 9 3 -20 -20 -20 -20 -20 -20 -20 -20 -20 -20
-20 -20 -20 -20 -20 -20 -20 -20 -20 -20 -20 -20 -20 -20 -20 -19 -20 -19 -20 -20 -20 -20 -20 -20 -20 -20 -18 -20 -20 -20 -20 -20 -20 -20 -20 -20 -20 -20 -20 -20 -20 -20 -20 -20
-20 -20 -20 -20 -20 -20 -20 -20 -20 -20 -20 -20 -20 -20 -20 -20 -20 -20 -20 -15 -20 -20 -20 -20 -20 -20 -20 -20 -20 -20 -20 -20 -20 -20 -20 -20 -20 -20 -20 -20 -20 -20 -20 -20
-20 -20 -20 -20 -20 -20 -20 -20 -20 -20 -20 -20 -20 -20 -20 -20 -20 -20 -20 -20 -20 -20 -20 -20 -20 -20 -20 -20 -20 -20 -20 -20 -20 -20 -20 -20 -20 -20 -20 -20 -20 -20 -20 -20
-20 -20 -20 -20 -20 -20 -20 -20 -20 -20 -20 -20 -20 -20 -20 -20 -20 -10 -20 -20 -20 -20 -20 -20 -20 -20 -20 -20 -20 -20 -20 -20 -20 -20 -20 -20 -20 -20 -20 -20 -20 -20 -20 -20
-20 -20 -20 -20 -20 -20 -20 -20 -20 -20 -20 -20 -20 -20 -20 -20 -20 -20 -20 -20 -20 -20 -20 -20 -20 -20 -20 -20 -20 -20 -20 -20 -20 -20 -20 -20 -20 -20 -20 -20 -20 -20 -20 -20
-20 -20 -16 -17 -10 -8 -6 -13 -20 -20 -20 -20 -20 -20 -20 -20 -20 -20 -20 -20 -20 -20 -20 -20 -20 -20 -20 -20 -20 -20 -20 -20 -20 -20 -20 -20 -20 -20 -20 -20 -20 -20 -20 -20
-20 -20 -20 -20 -20 -19 -19 -19 -20 -20 -20 -20 -20 -20 -20 -20 -20 -20 -20 -20 -20 -20 -20 -20 -20 -20 -20 -20 -20 -20 -20 -20 -20 -20 -20 -20 -20 -20 -20 -20 -20 -20 -20 -20

GFSNGP_prec_radar_090.txt.gz
Reflectivity
-20 -12 -20 5 12 25 32 16 10 -0 -5 -5 23 39 37 21 6 -19 11 -20 -20 -20 -20 -7 14 20 17 -18 -9 -20 -18 -11 -20 -20 -20 -20 -20 -20 -20 -20 -20 -20 -20 -20
-20 -20 25 -17 4 -3 1 29 14 4 11 12 24 33 40 28 34 30 -1 -2 -20 -20 -20 -20 -20 -20 6 4 -15 -11 6 -14 -19 -19 -19 -20 -19 -20 -20 -20 -20 -20 -20 -20
-20 -20 5 -20 -19 -19 8 7 -17 28 -6 16 17 23 33 33 29 19 26 15 -9 -20 -20 -20 -20 -20 -20 -20 -20 5 2 16 -3 -5 24 19 27 -19 -17 7 -20 -20 -20 -20
-20 -20 -20 -20 15 -6 19 20 -11 1 10 -7 32 22 9 10 21 6 9 17 10 11 11 -20 -20 -20 -20 -20 -20 -20 -20 -19 -9 -6 11 15 23 26 24 21 21 -20 -20 -20
-20 -19 -20 -20 -6 22 -1 14 -19 2 25 -5 -13 29 -9 -20 -19 -5 13 10 10 8 -5 -4 -17 -20 -20 -20 -20 -20 -20 -20 16 15 -20 -11 -5 22 19 9 15 22 25 26
-19 11 5 -19 29 14 13 -18 -19 4 32 -18 -20 -20 -0 7 3 8 -12 -5 -17 -20 -20 -20 -20 -20 -20 -20 -20 -20 -20 -20 -20 -20 -20 -13 -15 24 21 -0 5 21 22 21
-20 6 5 -20 -14 -20 -1 -19 -20 -2 3 4 9 -11 -20 14 23 8 -4 -20 -20 -20 -20 -20 -20 -20 -20 -20 -20 -20 -20 -20 -20 -20 -20 -20 -20 -20 -9 -13 12 24 18 20
-1 15 12 -20 -20 10 -20 -20 -19 -6 -11 -18 -17 -20 -20 -19 13 -18 -13 -20 -20 -20 -20 -20 -20 -20 -20 -20 -20 -20 -20 -20 -20 -20 -20 -20 -20 -20 -16 23 23 19 13 20
-20 -20 -9 -20 -20 -20 -6 13 -20 10 -14 -20 -20 -20 -20 -20 -20 -19 -20 -20 -20 -20 -20 -20 -20 -20 -20 -20 -20 -20 -20 -20 -20 -20 -20 -20 -20 -20 -20 7 24 25 27 23
21 11 -8 3 17 -2 4 10 17 2 -3 10 -6 -20 -20 -20 -20 -20 -20 -20 -20 -20 -20 -20 -20 -20 -20 -20 -20 -20 -20 -20 -20 -20 -20 -20 -20 -20 -20 -20 -20 14 23 26
32 24 15 9 11 29 -2 14 -1 32 19 -19 -20 -20 -20 -20 -20 -20 -20 -20 -20 -20 -20 -20 -20 -20 -20 -20 -20 -20 -20 -20 -20 -20 -20 -20 -20 -20 -20 -20 -20 -20 -9 14
29 28 19 24 21 28 28 16 -15 -18 -18 -20 -20 -20 -20 -20 -20 -20 -20 -20 -20 -20 -20 -20 -20 -20 -20 -20 -20 -20 -20 -20 -17 -20 -20 -20 -20 -20 -19 -16 -5 -20 -17 -17
30 39 36 30 31 24 7 13 13 7 -20 -20 -20 -20 -20 -20 -20 -20 -20 -20 -20 -20 -20 -20 -20 -20 -20 -20 -20 -20 -20 -20 -20 -20 -20 -20 -20 -20 -20 -19 -18 -15 -11 -2
29 23 6 16 17 17 15 12 3 -4 -20 -20 -20 -20 -20 -20 -20 -20 -20 -20 -20 -20 -20 -19 -20 -18 -16 -20 -20 -19 -17 4 -18 -16 -8 -12 -20 -20 -20 -20 -20 -18 -9 1
13 19 5 -18 -20 -20 -20 -20 -20 -20 -20 -20 -20 -20 -20 -20 -20 -17 -20 -20 -20 -20 -20 -20 -20 -19 -20 -20 -20 -20 -19 -15 -14 -15 -19 -19 -20 -20 -20 -20 -20 -19 -19 -20
-20 -20 -20 -20 -20 -20 -20 -20 -20 -20 -20 -20 -20 -20 -20 -20 -20 -20 -20 -20 -20 -20 -20 -20 -20 -18 -19 -20 -19 -17 -20 -20 -20 -18 -16 -19 -20 -17 -17 -19 -20 -20 -20 -20
-20 -20 -20 -2 -20 -20 -20 -20 -20 -20 -20 -20 2 -20 -20 -20 -20 -20 -20 -20 -20 -20 -20 -20 -18 -20 -20 -20 -20 -20 -20 -20 -20 -20 -11 -5 -15 -12 -14 -17 -19 -20 -20 -20
-20 -20 -20 -20 -20 -20 -20 -20 -20 -20 -20 -20 -20 -20 -20 -20 -20 -20 -18 -19 -20 -20 -20 -20 -20 -20 -20 -20 -20 -20 -20 -20 -20 -13 -3 2 7 9 10 2 -10 -15 -16 -19
-20 -20 -20 -19 -20 -20 -20 -14 -19 -17 -20 -20 -20 -20 -20 -20 -19 -18 -19 -20 -20 -20 -20 -20 -20 -20 -20 -20 -20 -20 -20 -20 -19 -11 1 7 6 4 5 6 -2 -11 -20 -20
-20 -20 -20 -20 -20 -20 -8 -20 -20 -20 -20 -20 -20 -20 -20 -20 -20 -20 -20 -20 -19 -18 -20 -20 -20 -20 -20 -20 -20 -20 -20 -20 -20 -16 -9 -4 -5 -4 -11 -19 -19 -20 -20 -20
-20 -20 -20 -20 -20 -20 -20 -20 -20 -20 -20 -20 -20 -20 -20 -20 -20 -20 -20 -20 -20 -20 -20 -20 -20 -20 -20 -20 -20 -20 -20 -20 -20 -20 -20 -20 -20 -20 -20 -20 -20 -20 -20 -20
-20 -20 -20 -20 -20 -20 -20 -20 -20 -20 -20 -20 -20 -20 -20 -20 -20 -20 -20 -20 -20 -20 -20 -20 -20 -20 -20 -20 -20 -20 -20 -20 -20 -20 -20 -20 -20 -20 -20 -20 -20 -20 -20 -20
-20 -20 -20 -20 -20 -20 -20 -20 -20 -20 -20 -20 -20 -20 -20 -20 -20 -20 -20 -20 -20 -20 -20 -20 -20 -20 -20 -20 -20 -20 -20 -20 -20 -20 -20 -20 -20 -20 -20 -20 -20 -20 -20 -20
-20 -20 -20 -20 -20 -20 -20 -20 -20 -20 -20 -20 -20 -20 -20 -20 -20 -15 -20 -20 -20 -20 -20 -20 -20 -20 -20 -20 -20 -20 -20 -20 -20 -20 -20 -20 -20 -20 -20 -20 -20 -20 -20 -20
-20 -20 -20 -20 -20 -20 -20 -20 -20 -20 -20 -20 -20 -20 -20 -20 -20 -20 -20 -20 -20 -20 -20 -20 -20 -20 -20 -20 -20 -20 -20 -20 -20 -20 -20 -20 -20 -20 -20 -20 -20 -20 -20 -20
-20 -20 -20 -19 -20 -20 -20 -20 -20 -20 -20 -20 -20 -20 -20 -20 -20 -20 -20 -20 -20 -20 -20 -20 -20 -20 -20 -20 -20 -20 -20 -20 -20 -20 -20 -20 -20 -20 -20 -20 -20 -20 -20 -20
-20 -20 -20 -20 -20 -20 -20 -20 -20 -20 -20 -20 -20 -20 -20 -20 -20 -20 -20 -20 -20 -20 -20 -20 -20 -20 -20 -20 -20 -20 -20 -20 -20 -20 -20 -20 -20 -20 -20 -20 -20 -20 -20 -20

GFSNGP_prec_radar_096.txt.gz
Reflectivity
-20 -20 -20 -20 -20 -20 -15 -9 15 -20 -7 -20 3 -20 -20 -2 30 21 -10 11 9 15 9 11 20 16 25 25 22 21 25 -11 -19 -20 3 -20 -20 -20 -20 -20 -20 -20 -20 -20
-20 -20 -20 -20 -20 -20 -20 -20 -20 -11 -20 -15 -18 10 -20 10 32 34 -11 -20 -9 -5 -3 9 16 17 19 -19 -19 16 28 10 11 -13 -20 -20 -20 -20 -20 -20 -20 -20 -20 -20
-20 -20 -20 -20 -20 -20 -17 -20 -20 -20 -20 -20 -0 6 7 -6 33 14 34 0 -18 -20 -20 5 15 21 30 27 23 -10 -17 12 19 25 -1 -15 -18 -20 -20 -20 -20 -20 -20 -20
-20 -20 -20 -20 -20 -20 -20 -20 -20 -7 -20 -13 22 4 20 17 36 12 18 35 33 30 5 7 26 31 20 22 16 1 3 -13 9 12 11 2 -4 5 -10 -7 -20 -20 -20 -20
-20 -20 -20 -20 -20 -20 -20 -20 3 -15 8 28 11 28 30 37 32 33 34 27 32 32 28 25 19 15 4 7 8 -19 -19 -20 -16 -14 -17 3 -19 -13 -3 1 19 20 14 28
-20 -14 -20 -20 -20 -20 -20 -20 -7 -6 12 13 36 29 29 31 34 34 22 23 28 27 26 25 17 12 18 11 -4 -20 -20 -20 -20 -20 -20 -20 -20 -20 -20 -8 5 7 16 13
-20 5 -11 -20 -20 -20 -20 -12 -20 -10 7 21 37 37 37 37 38 24 21 5 -6 5 12 15 17 14 4 -17 -13 -20 -20 -20 -20 -20 -20 -20 -20 -20 -20 -20 -20 -20 12 19
-20 -11 -20 -20 -20 -20 -20 -20 -20 -20 -12 22 24 29 28 35 25 13 12 -8 -20 -20 -20 -9 -6 4 -5 -13 -13 -17 -20 -20 -20 -20 -20 -20 -20 -20 -20 -20 -20 -20 -20 -16
-20 -20 -11 9 -2 -19 12 8 -20 -9 27 24 24 29 32 24 4 -18 -14 -0 -19 -20 -20 -20 -19 -6 4 -20 -19 -18 -17 -12 -20 -20 -20 -20 -20 -20 -20 -20 -20 -20 -20 -20
-9 35 21 24 -6 -1 6 20 15 13 -0 -5 -1 21 2 -20 -16 11 -9 -20 -20 -20 -20 -20 -20 -20 -20 -20 -20 -20 -20 -20 -20 -20 -20 -20 -20 -20 -20 -20 -20 -20 -20 -20
22 27 28 10 25 28 25 12 -7 -8 8 19 17 14 19 19 -2 -20 -20 -20 -20 -20 -20 -20 -20 -20 -20 -20 -20 -20 -20 -20 -20 -20 -20 -20 -19 -16 -19 -14 -15 -20 -19 -19
-0 18 22 20 29 16 14 13 2 20 13 -15 -20 -9 6 -20 -20 -20 -20 -20 -20 -20 -20 -20 -20 -20 -20 -20 -20 -20 -20 -20 -15 -20 -20 -20 -20 -20 -15 2 -15 -20 -20 -20
-16 31 25 28 35 29 16 16 7 -19 -20 -20 -20 -20 -20 -4 2 -20 -20 -20 -20 -20 -20 -20 -20 -20 -20 -20 -20 -20 -20 -20 -19 -5 -20 -20 -20 -20 -20 -20 -20 -19 1 1
-2 25 23 13 6 2 0 -7 -20 -20 -20 -20 -20 -20 -20 -20 -20 -20 -20 -20 -20 -20 -20 -20 -20 -20 -20 -20 -20 -20 -20 -20 -19 -17 -18 -20 -20 -20 -20 -20 -20 -20 -15 -18
-19 -13 1 -18 -20 -20 -20 -20 -20 -20 -20 -20 -20 -20 -20 -20 -20 -20 -20 -20 -20 -20 -20 -20 -20 -20 -20 -20 -20 -20 -20 -20 -20 -20 -20 -20 -20 -20 -20 -20 -20 -20 -20 -20
-20 -20 -20 -20 -20 -20 -20 -20 -20 -20 -7 -20 -20 -20 -20 -20 -20 -20 -20 -20 -20 -20 -20 -20 -20 -20 -20 -20 -20 -20 -20 -20 -20 -20 -20 -20 -20 -20 -20 -20 -20 -20 -20 -20
-20 -20 -20 -20 -20 -20 -20 -20 -20 -20 -20 -20 -20 -20 -20 -20 -20 -20 -20 -20 -20 -20 -20 -20 -20 -20 -20 -20 -20 -20 -20 -20 -20 -20 -20 -20 -20 -20 -20 -20 -20 -20 -20 -20
-20 -20 -20 -20 -20 -20 -20 -20 -20 -20 -20 -20 -20 -20 -20 -20 -20 -20 -20 -20 -20 -20 -20 -20 -20 -20 -20 -20 -20 -20 -20 -20 -20 -20 -20 -19 -20 -20 -20 -20 -20 -20 -20 -20
-20 -20 -20 -20 -20 -20 -20 -20 -20 -20 -20 -20 -20 -20 -20 -20 -20 -20 -20 -20 -20 -20 -20 -20 -20 -20 -20 -20 -20 -20 -20 -20 -20 -20 -20 -20 -20 -20 -20 -20 -20 -20 -20 -20
-20 -20 -20 -20 -20 -20 -20 -20 -20 -20 -20 -20 -20 -20 -20 -20 -20 -20 -20 -20 -20 -20 -20 -20 -20 -20 -20 -20 -20 -20 -20 -20 -20 -20 -20 -20 -20 -20 -20 -20 -20 -20 -20 -20
-20 -20 -20 -20 -20 -20 -20 -20 -20 -20 -20 -20 -20 -20 -20 -20 -20 -20 -20 -20 -20 -20 -20 -20 -20 -20 -20 -20 -20 -20 -20 -20 -20 -20 -20 -20 -20 -20 -20 -20 -20 -20 -20 -20
-20 -20 -20 -20 -20 -20 -20 -20 -20 -20 -20 -20 -20 -20 -20 -20 -20 -20 -20 -20 -20 -20 -20 -20 -20 -20 -20 -20 -20 -20 -20 -20 -20 -20 -20 -20 -20 -20 -20 -20 -20 -20 -20 -20
-20 -20 -20 -20 -20 -20 -20 -20 -20 -20 -20 -20 -20 -20 -20 -20 -20 -20 -20 -20 -20 -20 -20 -20 -20 -20 -20 -20 -20 -20 -20 -20 -20 -20 -20 -20 -20 -20 -20 -20 -20 -20 -20 -20
-20 -20 -20 -20 -20 -20 -20 -20 -20 -20 -20 -20 -20 -20 -20 -20 -20 -20 -20 -20 -20 -20 -20 -20 -20 -20 -20 -20 -20 -20 -20 -20 -20 -20 -20 -20 -20 -20 -20 -20 -20 -20 -20 -20
-20 -20 -20 -20 -20 -20 -20 -20 -20 -20 -20 -20 -20 -20 -20 -20 -20 -20 -20 -20 -20 -20 -20 -20 -20 -20 -20 -20 -20 -20 -20 -20 -20 -20 -20 -20 -20 -20 -20 -20 -20 -20 -20 -20
-20 -20 -20 -20 -20 -20 -20 -20 -20 -20 -20 -20 -20 -20 -20 -20 -20 -20 -20 -20 -20 -20 -20 -20 -20 -20 -20 -20 -20 -20 -20 -20 -20 -20 -20 -20 -20 -20 -20 -20 -20 -20 -20 -20
-20 -20 -20 -20 -20 -20 -20 -20 -20 -20 -20 -20 -20 -20 -20 -20 -20 -20 -20 -20 -20 -20 -20 -20 -20 -20 -20 -20 -20 -20 -20 -20 -20 -20 -20 -20 -20 -20 -20 -20 -20 -20 -20 -20

GFSNGP_prec_radar_099.txt.gz
Reflectivity
-20 -20 -20 -20 -20 -20 -20 -20 -9 -20 -20 -20 -18 -16 10 8 11 22 41 31 21 15 21 27 17 15 23 3 1 28 22 23 18 -3 -20 -20 -20 -20 -20 -20 -20 -20 -20 -20
-20 -20 -20 -20 -20 -20 -20 -20 -20 -20 -20 -20 -20 -17 19 7 9 17 37 21 25 26 24 25 25 25 16 20 8 -14 6 16 26 23 -19 -20 -20 -20 -20 -20 -20 -20 -20 -20
-20 -20 -20 -20 -20 -20 -20 -20 -20 -20 -20 -20 -8 18 29 5 18 15 24 32 4 -7 11 9 4 -20 10 -7 10 -1 1 9 22 30 24 25 3 -17 -14 -20 -20 -20 -20 -20
-20 -20 -20 -20 -20 -20 -20 -20 -20 -20 -13 -20 2 33 30 14 29 29 34 35 33 -8 10 13 7 4 3 -1 -7 1 19 26 22 14 -1 5 1 1 7 12 11 4 -20 -12
-20 -20 -20 -20 -20 -20 -20 -20 -20 12 10 -11 38 34 36 35 39 39 34 32 36 33 30 -12 -20 -4 20 33 42 25 35 37 4 -20 -17 3 7 3 17 3 6 9 14 5
-20 -20 -20 -20 -20 -20 -20 -20 -20 6 36 -3 8 33 28 36 40 36 37 35 26 30 27 24 22 25 24 18 9 12 28 19 -1 -20 -20 -20 -20 -20 -20 1 16 11 17 21
-20 -15 -20 -19 -20 -20 -20 -13 5 -16 -5 33 35 25 31 41 34 37 32 13 -9 -19 8 9 -4 27 20 12 -2 12 13 -12 -17 -20 -20 -20 -20 -20 -20 -20 -17 -20 -4 -2
-20 -20 -20 -19 -20 -13 -3 3 8 6 16 0 18 33 20 24 28 27 19 5 -20 -20 -20 -18 7 9 3 19 17 13 5 -20 -20 -20 -20 -20 -20 -20 -20 -20 -20 -20 1 -5
-15 12 25 -2 3 2 -15 4 10 13 7 7 23 19 18 19 15 14 15 -6 -14 -20 -20 -20 -20 5 -8 -3 9 17 15 -14 -5 1 -5 -20 -18 -4 -5 -13 -20 -20 -20 -20
-18 13 17 18 26 5 14 -1 4 18 6 -0 6 13 18 21 20 12 9 17 7 -20 -20 -20 -20 -20 -20 -9 -2 -1 9 8 -8 -20 -20 -20 -20 -20 -20 -20 -17 -20 -16 -5
11 5 18 2 25 2 1 4 -3 -9 -6 0 -19 -17 -13 -6 1 10 -13 -19 -20 -20 -20 -20 -20 -20 -20 -20 -20 -20 -14 -4 -8 -16 -20 -20 -20 -12 -12 -16 -3 -3 -1 -5
-2 -1 -3 7 5 -2 -1 -14 -12 -13 -20 -18 -10 -20 -20 -20 -20 -20 -20 -20 -20 -20 -20 -20 -20 -20 -20 -20 -20 -20 -20 -20 -9 -20 -20 -20 -20 -19 -16 -14 -14 -10 -20 -6
-9 9 -6 5 10 9 11 8 -19 -6 -20 -20 -20 -20 -20 -20 -20 -20 -20 -20 -20 -20 -20 -20 -20 -20 -20 -20 -20 -20 -20 -20 -20 -20 -20 -20 -20 -20 -20 -20 -20 -19 -2 4
3 9 10 -13 -9 -7 -14 -20 -20 -20 -20 -20 -20 -20 -20 -20 -20 -20 -20 -20 -20 -20 -20 -20 -20 -20 -20 -20 -20 -20 -20 -20 -20 -20 -20 -20 -20 -20 -20 -20 -20 -20 -20 -3
13 -2 -5 8 -18 -20 -19 -20 -20 -20 -20 -20 -20 -20 -20 -20 -20 -20 -20 -20 -20 -20 -20 -20 -20 -20 -20 -20 -20 -20 -20 -20 -20 -20 -20 -20 -20 -20 -20 -20 -20 -20 -20 -20
-20 -16 6 -17 -20 -20 -20 -20 -20 -20 -20 -20 -20 -20 -20 -20 -20 -20 -20 -20 -20 -20 -20 -20 -20 -20 -20 -20 -20 -20 -20 -20 -20 -20 -20 -20 -20 -20 -20 -20 -20 -20 -20 -20
-20 -20 -20 -20 -20 -20 -20 -20 -20 -20 -20 -20 -20 -20 -20 -20 -20 -20 -20 -20 -20 -20 -20 -20 -20 -20 -20 -20 -20 -20 -20 -20 -20 -20 -20 -20 -20 -20 -20 -20 -20 -20 -20 -20
-20 -20 -20 -20 -20 -20 -20 -20 -20 -20 -20 -20 -20 -20 -20 -20 -20 -20 -20 -20 -20 -20 -20 -20 -20 -20 -20 -20 -20 -20 -20 -20 -20 -20 -20 -20 -20 -20 -20 -20 -20 -20 -20 -20
-20 -20 -20 -20 -20 -20 -20 -20 -20 -20 -20 -20 -20 -20 -20 -20 -20 -20 -20 -20 -20 -20 -20 -20 -20 -20 -20 -20 -20 -20 -20 -20 -20 -20 -20 -20 -20 -20 -20 -20 -20 -20 -20 -20
-20 -20 -20 -20 -20 -20 -20 -20 -20 -20 -20 -20 -20 -20 -20 -20 -20 -20 -20 -20 -20 -20 -20 -20 -20 -20 -20 -20 -20 -20 -20 -20 -20 -20 -20 -20 -20 -20 -20 -20 -20 -20 -20 -20
-20 -20 -20 -20 -20 -20 -20 -20 -20 -20 -20 -20 -20 -20 -20 -20 -20 -20 -20 -20 -20 -20 -20 -20 -20 -20 -20 -20 -20 -20 -20 -20 -20 -20 -20 -20 -20 -20 -20 -20 -20 -20 -20 -20
-20 -20 -20 -20 -20 -20 -20 -20 -20 -20 -20 -20 -20 -20 -20 -20 -20 -20 -20 -19 -20 -20 -20 -20 -20 -20 -20 -20 -20 -20 -20 -20 -20 -20 -20 -20 -20 -20 -20 -20 -20 -20 -20 -20
-20 -20 -20 -20 -20 -20 -20 -20 -20 -20 -20 -20 -20 -20 -20 -20 -20 -20 -20 -20 -20 -20 -20 -20 -20 -20 -20 -20 -20 -20 -20 -20 -20 -20 -20 -20 -20 -20 -20 -20 -20 -20 -20 -20
-20 -20 -20 -20 -20 -20 -20 -20 -20 -20 -20 -20 -20 -20 -20 -20 -20 -20 -20 -20 -20 -20 -20 -20 -20 -20 -20 -20 -20 -20 -20 -20 -20 -20 -20 -20 -20 -20 -20 -20 -20 -20 -20 -20
-20 -20 -20 -20 -20 -20 -20 -20 -20 -20 -20 -20 -20 -20 -20 -20 -20 -20 -20 -20 -20 -20 -20 -20 -20 -20 -20 -20 -20 -20 -20 -20 -20 -20 -20 -20 -20 -20 -20 -20 -20 -20 -20 -20
-20 -20 -20 -20 -20 -20 -20 -20 -20 -20 -20 -20 -20 -20 -20 -20 -20 -20 -20 -20 -20 -20 -20 -20 -20 -20 -20 -20 -20 -20 -20 -20 -20 -20 -20 -20 -20 -20 -20 -20 -20 -20 -20 -20
-20 -20 -20 -20 -20 -20 -20 -20 -6 -20 -20 -20 -20 -20 -20 -20 -20 -20 -20 -20 -20 -20 -20 -20 -20 -20 -20 -20 -20 -20 -20 -20 -20 -20 -20 -20 -20 -20 -20 -20 -20 -20 -20 -20